Location: Peach Mountain Observatory
(42.3967°N, 83.9367°W)
Time: 20:24:31
(UTC-05:00)

A-11 Canister half - Visible Passes

Search period start: 28 January 2020 00:00
Search period end: 07 February 2020 00:00
Orbit: 1525 x 1684 km, 47.3° (Epoch: 28 January)

Date Brightness Start Highest point End Pass type
(mag) Time Alt. Az. Time Alt. Az. Time Alt. Az.
28 Jan 9.1 18:08:53 10° WSW 18:18:14 84° NNW 18:27:52 10° ENE visible
28 Jan 9.1 20:14:35 10° W 20:23:58 66° N 20:26:20 52° ENE visible
28 Jan 10.2 22:20:01 10° WNW 22:24:38 34° WNW 22:24:38 34° WNW visible
29 Jan 9.1 19:52:56 10° W 20:02:17 66° N 20:05:56 42° ENE visible
29 Jan 9.8 21:58:22 10° WNW 22:04:14 44° WNW 22:04:14 44° WNW visible
30 Jan 9.1 19:31:15 10° W 19:40:37 66° N 19:45:34 32° ENE visible
30 Jan 9.4 21:36:44 10° WNW 21:43:52 57° WNW 21:43:52 57° WNW visible
30 Jan 11.2 23:42:05 10° WNW 23:42:10 10° WNW 23:42:10 10° WNW visible
31 Jan 9.1 19:09:36 10° W 19:18:55 66° N 19:25:12 24° ENE visible
31 Jan 9.0 21:15:06 10° WNW 21:23:30 73° NW 21:23:30 73° NW visible
31 Jan 11.0 23:20:24 10° WNW 23:21:49 15° WNW 23:21:49 15° WNW visible
01 Feb 9.1 18:47:56 10° W 18:57:15 66° N 19:04:52 18° ENE visible
01 Feb 8.8 20:53:28 10° WNW 21:02:59 85° NNE 21:03:10 84° NE visible
01 Feb 10.7 22:58:44 10° WNW 23:01:28 21° WNW 23:01:28 21° WNW visible
02 Feb 9.2 18:26:16 10° W 18:35:34 66° N 18:44:33 12° ENE visible
02 Feb 8.8 20:31:50 10° WNW 20:41:19 83° NNE 20:42:52 67° E visible
02 Feb 10.4 22:37:04 10° WNW 22:41:10 27° W 22:41:10 27° W visible
03 Feb 9.2 18:04:36 10° W 18:13:53 66° N 18:23:25 10° ENE visible
03 Feb 8.9 20:10:12 10° WNW 20:19:40 81° NNE 20:22:36 51° E visible
03 Feb 10.1 22:15:24 10° WNW 22:20:55 35° W 22:20:55 35° W visible
04 Feb 8.9 19:48:33 10° WNW 19:58:00 79° NNE 20:02:22 38° E visible
04 Feb 9.7 21:53:45 10° WNW 22:00:42 44° WSW 22:00:42 44° WSW visible
05 Feb 9.0 19:26:55 10° WNW 19:36:20 78° NNE 19:42:13 28° E visible
05 Feb 9.4 21:32:06 10° WNW 21:40:32 52° SW 21:40:32 52° SW visible
06 Feb 9.0 19:05:16 10° WNW 19:14:41 76° NNE 19:22:06 19° ESE visible
06 Feb 9.3 21:10:27 10° WNW 21:19:34 55° SW 21:20:26 53° SSW visible
06 Feb 11.1 23:17:57 10° W 23:18:46 12° W 23:18:46 12° W visible
